Change the Weather History Date:

Wednesday, November 19, 2014

  Actual Average Record
Temperature  
Mean Temperature 34 °F -  
Max Temperature 48 °F 51 °F 66 °F (2007)
Min Temperature 21 °F 33 °F 19 °F (2000)
Degree Days  
Heating Degree Days 30    
Moisture  
Dew Point 21 °F    
Average Humidity 57    
Maximum Humidity 69    
Minimum Humidity 43    
Precipitation  
Precipitation 0.00 in - - ()
Sea Level Pressure  
Sea Level Pressure 30.05 in    
Wind  
Wind Speed 11 mph (WSW)    
Max Wind Speed 23 mph    
Max Gust Speed 30 mph    
Visibility 10 miles    
Events      
Averages and records for this station are not official NWS values.
T = Trace of Precipitation, MM = Missing Value Source: NWS Daily Summary

Daily Weather History Graph

Daily Weather History Graph

Search for Another Location

Airport or City:

Trip Planner

Search our weather history database for the weather conditions in past years. The results will help you decide how hot, cold, wet, or windy it might be!

Date:

Astronomy

Nov. 19, 2014 Rise Set
Actual Time 6:41 AM CST 4:40 PM CST
Civil Twilight 6:12 AM CST 5:08 PM CST
Nautical Twilight 5:40 AM CST 5:40 PM CST
Astronomical Twilight 5:09 AM CST 6:12 PM CST
Moon 3:39 AM CST (11/19) 3:05 PM CST (11/19)
Length of Visible Light 10h 56m
Length of Day
9h 59m
Waning Crescent, 8% of the Moon is Illuminated
Nov 19
Waning Crescent
Nov 22
New
Nov 29
First Quarter
Dec 6
Full
Dec 14
Last Quarter

Hourly Weather History & Observations

Time (CST) Temp. Windchill Dew Point Humidity Pressure Visibility Wind Dir Wind Speed Gust Speed Precip Events Conditions
12:15 AM 21.2 °F 10.1 °F 12.2 °F 68% 30.17 in 10.0 mi South 10.4 mph - N/A   Clear
12:35 AM 23.0 °F 13.1 °F 12.2 °F 63% 30.16 in 10.0 mi South 9.2 mph - N/A   Scattered Clouds
12:55 AM 24.8 °F 14.6 °F 12.2 °F 59% 30.14 in 10.0 mi South 10.4 mph - N/A   Overcast
2:55 AM 24.8 °F 15.3 °F 15.8 °F 69% 30.07 in 10.0 mi South 9.2 mph - N/A   Clear
3:15 AM 26.6 °F 15.7 °F 17.6 °F 69% 30.06 in 10.0 mi South 12.7 mph - N/A   Scattered Clouds
3:35 AM 26.6 °F 15.7 °F 17.6 °F 69% 30.05 in 10.0 mi South 12.7 mph 17.3 mph N/A   Mostly Cloudy
3:55 AM 28.4 °F 18.0 °F 19.4 °F 69% 30.03 in 10.0 mi South 12.7 mph - N/A   Mostly Cloudy
4:15 AM 28.4 °F 16.6 °F 19.4 °F 69% 30.02 in 10.0 mi South 16.1 mph - N/A   Mostly Cloudy
4:35 AM 28.4 °F 16.6 °F 19.4 °F 69% 30.01 in 10.0 mi South 16.1 mph 21.9 mph N/A   Mostly Cloudy
4:55 AM 30.2 °F 18.9 °F 19.4 °F 64% 30.00 in 10.0 mi SSW 16.1 mph - N/A   Mostly Cloudy
5:15 AM 30.2 °F 18.9 °F 21.2 °F 69% 29.99 in 10.0 mi SSW 16.1 mph 21.9 mph N/A   Mostly Cloudy
5:35 AM 30.2 °F 18.5 °F 21.2 °F 69% 29.99 in 10.0 mi SSW 17.3 mph - N/A   Overcast
5:55 AM 30.2 °F 19.3 °F 21.2 °F 69% 29.99 in 10.0 mi SSW 15.0 mph 23.0 mph N/A   Mostly Cloudy
6:15 AM 32.0 °F 20.8 °F 21.2 °F 64% 29.99 in 10.0 mi SSW 17.3 mph 29.9 mph N/A   Mostly Cloudy
6:35 AM 33.8 °F 22.2 °F 21.2 °F 60% 29.98 in 10.0 mi SSW 20.7 mph 28.8 mph N/A   Mostly Cloudy
6:55 AM 33.8 °F 22.2 °F 21.2 °F 60% 29.98 in 10.0 mi SSW 20.7 mph 26.5 mph N/A   Scattered Clouds
7:15 AM 33.8 °F 21.6 °F 21.2 °F 60% 29.99 in 10.0 mi SSW 23.0 mph 29.9 mph N/A   Mostly Cloudy
7:35 AM 33.8 °F 22.8 °F 23.0 °F 65% 29.99 in 10.0 mi SSW 18.4 mph - N/A   Overcast
7:55 AM 33.8 °F 23.5 °F 23.0 °F 65% 29.99 in 10.0 mi SSW 16.1 mph - N/A   Overcast
8:15 AM 35.6 °F 25.9 °F 23.0 °F 60% 30.00 in 10.0 mi SW 16.1 mph 27.6 mph N/A   Mostly Cloudy
8:35 AM 35.6 °F 25.2 °F 24.8 °F 65% 30.00 in 10.0 mi SSW 18.4 mph 27.6 mph N/A   Mostly Cloudy
8:55 AM 35.6 °F 24.5 °F 23.0 °F 60% 30.00 in 10.0 mi SSW 20.7 mph 26.5 mph N/A   Partly Cloudy
9:15 AM 37.4 °F 26.9 °F 24.8 °F 60% 30.00 in 10.0 mi SW 20.7 mph 25.3 mph N/A   Scattered Clouds
9:35 AM 37.4 °F 27.2 °F 24.8 °F 60% 30.00 in 10.0 mi SW 19.6 mph 25.3 mph N/A   Partly Cloudy
9:55 AM 37.4 °F 28.2 °F 24.8 °F 60% 30.00 in 10.0 mi SW 16.1 mph 24.2 mph N/A   Clear
10:15 AM 42.8 °F 34.3 °F 28.4 °F 57% 30.00 in 10.0 mi SW 19.6 mph 25.3 mph N/A   Clear
10:35 AM 42.8 °F 34.8 °F 26.6 °F 53% 30.00 in 10.0 mi SW 17.3 mph - N/A   Clear
10:55 AM 44.6 °F 36.9 °F 26.6 °F 49% 30.00 in 10.0 mi SW 18.4 mph 25.3 mph N/A   Scattered Clouds
11:15 AM 46.4 °F 39.8 °F 26.6 °F 46% 29.99 in 10.0 mi WSW 16.1 mph 27.6 mph N/A   Mostly Cloudy
11:35 AM 44.6 °F 36.9 °F 26.6 °F 49% 29.99 in 10.0 mi SW 18.4 mph 23.0 mph N/A   Mostly Cloudy
11:55 AM 46.4 °F 39.5 °F 24.8 °F 43% 29.98 in 10.0 mi WSW 17.3 mph 27.6 mph N/A   Partly Cloudy
12:15 PM 46.4 °F 41.1 °F 26.6 °F 46% 29.98 in 10.0 mi WSW 11.5 mph 23.0 mph N/A   Partly Cloudy
12:35 PM 48.2 °F - 26.6 °F 43% 29.98 in 10.0 mi West 15.0 mph 21.9 mph N/A   Clear
12:55 PM 48.2 °F - 26.6 °F 43% 29.97 in 10.0 mi West 11.5 mph 19.6 mph N/A   Clear
1:15 PM 48.2 °F - 28.4 °F 46% 29.98 in 10.0 mi West 9.2 mph 19.6 mph N/A   Clear
1:35 PM 48.2 °F - 26.6 °F 43% 29.98 in 10.0 mi NW 8.1 mph 20.7 mph N/A   Clear
1:55 PM 46.4 °F 42.9 °F 26.6 °F 46% 29.98 in 10.0 mi WNW 6.9 mph - N/A   Clear
2:15 PM 46.4 °F 42.4 °F 26.6 °F 46% 29.99 in 10.0 mi West 8.1 mph - N/A   Clear
2:35 PM 46.4 °F 43.5 °F 26.6 °F 46% 29.99 in 10.0 mi NW 5.8 mph - N/A   Clear
2:55 PM 44.6 °F 42.2 °F 24.8 °F 46% 30.01 in 10.0 mi North 4.6 mph - N/A   Clear
3:15 PM 42.8 °F 40.1 °F 24.8 °F 49% 30.01 in 10.0 mi NNW 4.6 mph - N/A   Partly Cloudy
3:35 PM 42.8 °F 38.6 °F 24.8 °F 49% 30.02 in 10.0 mi WNW 6.9 mph - N/A   Partly Cloudy
3:55 PM 41.0 °F 39.0 °F 23.0 °F 49% 30.04 in 10.0 mi WNW 3.5 mph - N/A   Mostly Cloudy
4:15 PM 39.2 °F 35.0 °F 23.0 °F 52% 30.05 in 10.0 mi WNW 5.8 mph - N/A   Mostly Cloudy
4:35 PM 37.4 °F 33.8 °F 21.2 °F 52% 30.06 in 10.0 mi WNW 4.6 mph - N/A   Partly Cloudy
4:55 PM 37.4 °F - 21.2 °F 52% 30.06 in 10.0 mi Calm Calm - N/A   Clear
5:15 PM 37.4 °F 34.9 °F 21.2 °F 52% 30.07 in 10.0 mi WNW 3.5 mph - N/A   Partly Cloudy
5:35 PM 35.6 °F 30.7 °F 21.2 °F 56% 30.08 in 10.0 mi NW 5.8 mph - N/A   Partly Cloudy
5:55 PM 35.6 °F 30.7 °F 21.2 °F 56% 30.09 in 10.0 mi WNW 5.8 mph - N/A   Clear
6:15 PM 35.6 °F 32.8 °F 19.4 °F 52% 30.10 in 10.0 mi West 3.5 mph - N/A   Clear
6:35 PM 33.8 °F - 19.4 °F 56% 30.11 in 10.0 mi Calm Calm - N/A   Partly Cloudy
6:55 PM 33.8 °F - 19.4 °F 56% 30.12 in 10.0 mi Calm Calm - N/A   Clear
7:15 PM 33.8 °F 30.8 °F 19.4 °F 56% 30.12 in 10.0 mi NNW 3.5 mph - N/A   Clear
7:55 PM 33.8 °F - 17.6 °F 52% 30.13 in 10.0 mi Calm Calm - N/A   Clear
8:15 PM 33.8 °F - 17.6 °F 52% 30.14 in 10.0 mi Calm Calm - N/A   Clear
8:35 PM 32.0 °F 28.7 °F 17.6 °F 55% 30.15 in 10.0 mi NW 3.5 mph - N/A   Clear
8:55 PM 30.2 °F 24.3 °F 17.6 °F 60% 30.16 in 10.0 mi NW 5.8 mph - N/A   Clear
9:15 PM 30.2 °F 26.7 °F 15.8 °F 55% 30.17 in 10.0 mi North 3.5 mph - N/A   Clear
9:35 PM 28.4 °F 24.6 °F 15.8 °F 59% 30.18 in 10.0 mi North 3.5 mph - N/A   Clear
9:55 PM 28.4 °F - 15.8 °F 59% 30.18 in 10.0 mi Calm Calm - N/A   Clear
10:15 PM 26.6 °F - 15.8 °F 64% 30.18 in 10.0 mi Calm Calm - N/A   Clear
10:35 PM 26.6 °F - 15.8 °F 64% 30.18 in 10.0 mi Calm Calm - N/A   Clear
10:55 PM 26.6 °F - 14.0 °F 59% 30.19 in 10.0 mi Calm Calm - N/A   Clear
11:15 PM 24.8 °F - 14.0 °F 64% 30.19 in 10.0 mi Calm Calm - N/A   Clear
11:35 PM 23.0 °F - 14.0 °F 68% 30.19 in 10.0 mi Calm Calm - N/A   Clear
11:55 PM 21.2 °F - 12.2 °F 68% 30.19 in 10.0 mi Calm Calm - N/A   Clear